STARLINK-5100, 55495

Orbit data source: Space-Track

STARLINK-5100, 55495 is a payload satellite owned by SpaceX/Seattle (US) in LEO that was launched on Thu, 02 Feb 2023 UTC via an FALCON 9 launch vehicle from the Air Force Eastern Test Range (AFETR). Payload-class satellites include a variety of spacecraft equipped with specific instruments for various scientific and technological missions. These include communications satellites like Starlink; space stations such as the ISS; scientific satellites like the Hubble; Earth observation satellites from companies like Planet Labs, Umbra, and HawkEye 360; GPS; miniature CubeSats for education and research; and military/defense satellites.

Loading next visibility...
Identifier
55495, 2023-015AY
Orbit
LEO
Country
Flag of USUS
Related business
Manufacturer
SpaceX/Seattle
Mission
Operational Commercial Communications
Bus & Motor
STARLINK, Unknown motor
Mass
305 kg wet, ~290 kg dry
Launch date (UTC)
2023-02-02 (3 years ago)
Launch vehicle
FALCON 9
Launch site
Air Force Eastern Test Range (AFETR)
Object type
Payload
Rocket body
Debris
Shape & HBR
Box + 1 Pan, 10.1 m
Radar Cross Section
13.562 m², Large (>1 m²)

Expand to show TLE details & history
Last TLE update: 6 hours ago

TLE from 6 hours ago
0 STARLINK-5100
1 55495U 23015AY  26132.83335647  .00008484  00000-0  31758-3 0  9993
2 55495  42.9997 319.2557 0001338 269.6524 107.5146 15.27569145  5791
Epoch: 2026-05-12T20:00Z
TLE epoch observation values (Epoch: 2026-05-12T20:00:01.999Z)
Latitude
11.63552°
Longitude
161.33089°
Altitude
482.369 km
Speed
7.627 km/s
True Right ascension
22h 07m 45s
True Declination
11° 33' 54"
Sunlit
Object was in daylight at epoch
Visualization orbit readout
Latitude
Unknown
Longitude
Unknown
Altitude
Unknown
Speed
Unknown
Apparent Right ascension
Unknown
Apparent Declination
Unknown
Sunlit
N/A
Visualization observer readout
Local Sidereal Time
10:33:49
Azimuth
Unknown
Elevation
Unknown
Doppler factor
Unknown
Orbital elements
Apogee altitude
485.945 km
Perigee altitude
484.109 km
Semi-major axis
6,863.164 km
Eccentricity
0.00013
Inclination
42.9997°
RAAN
319.2557°
Arg. of periapsis
269.6524°
True anomaly
107.52922°
Mean anomaly
107.5146°
Eccentric anomaly
107.52191°
Mean motion
3.8173 °/min
Orbital period
94.31 mins
BSTAR
0.00031758
Loading maneuver chart data...
Computing Atmospheric mass density...
Loading historical data...
Loading historical data...
Loading historical data...
Loading historical data...
Loading historical data...
Loading historical data...
Loading historical data...

Documentation

Showing up to 5 results
|